BAW101 KEUG-KLAX

Flight info

Callsign BAW101
Flight time 1h 35m
Altitude 37000
Route RBG OED SAC BURGL IRNMN2
Aircraft A346/H-SDE2E3FGHIJ3J4J5M1RWXY/LB1D1

Departure

Time 2026-04-22 04:16
Airport Eugene Airport (KEUG)

Arrival

Time 2026-04-22 05:51
Airport Los Angeles International Airport (KLAX)
Time Latitude Longitude Altitude Speed Heading
2026-04-22 03:37 44.11989 -123.21491 379 ft 0 kts 114°
2026-04-22 04:06 44.11989 -123.21492 379 ft 0 kts 114°
2026-04-22 04:06 44.11995 -123.21509 379 ft 2 kts 118°
2026-04-22 04:06 44.12002 -123.21527 379 ft 2 kts 118°
2026-04-22 04:07 44.12006 -123.21538 379 ft 2 kts 116°
2026-04-22 04:07 44.12010 -123.21558 379 ft 2 kts 83°
2026-04-22 04:07 44.12005 -123.21577 379 ft 2 kts 54°
2026-04-22 04:07 44.11996 -123.21591 379 ft 0 kts 31°
2026-04-22 04:08 44.11991 -123.21595 379 ft 0 kts 29°
2026-04-22 04:10 44.12006 -123.21583 379 ft 9 kts 30°
2026-04-22 04:11 44.12077 -123.21527 379 ft 13 kts 31°
2026-04-22 04:11 44.12149 -123.21475 379 ft 9 kts
2026-04-22 04:11 44.12211 -123.21512 379 ft 9 kts 330°
2026-04-22 04:11 44.12281 -123.21567 379 ft 13 kts 330°
2026-04-22 04:12 44.12369 -123.21642 378 ft 16 kts 327°
2026-04-22 04:12 44.12449 -123.21706 377 ft 11 kts 342°
2026-04-22 04:12 44.12523 -123.21711 376 ft 10 kts
2026-04-22 04:12 44.12609 -123.21712 376 ft 14 kts 359°
2026-04-22 04:13 44.12718 -123.21716 375 ft 17 kts 359°
2026-04-22 04:13 44.12850 -123.21718 372 ft 20 kts
2026-04-22 04:13 44.13000 -123.21719 373 ft 22 kts 359°
2026-04-22 04:13 44.13154 -123.21722 373 ft 20 kts
2026-04-22 04:14 44.13306 -123.21723 370 ft 23 kts 359°
2026-04-22 04:14 44.13447 -123.21725 369 ft 8 kts
2026-04-22 04:14 44.13491 -123.21725 369 ft 9 kts 356°
2026-04-22 04:14 44.13533 -123.21777 369 ft 9 kts 277°
2026-04-22 04:15 44.13535 -123.21876 369 ft 5 kts 265°
2026-04-22 04:15 44.13522 -123.21903 369 ft 4 kts 219°
2026-04-22 04:15 44.13486 -123.21917 369 ft 6 kts 181°
2026-04-22 04:15 44.13414 -123.21915 369 ft 26 kts 179°
2026-04-22 04:16 44.12880 -123.21906 373 ft 124 kts 178°
2026-04-22 04:16 44.10520 -123.21774 1719 ft 179 kts 180°
2026-04-22 04:16 44.09288 -123.21628 2729 ft 187 kts 179°
2026-04-22 04:17 44.07958 -123.21461 3582 ft 205 kts 179°
2026-04-22 04:17 44.06491 -123.21292 4436 ft 225 kts 179°
2026-04-22 04:17 44.04881 -123.21135 5367 ft 243 kts 178°
2026-04-22 04:17 44.03146 -123.20995 6129 ft 256 kts 178°
2026-04-22 04:18 44.01304 -123.20876 6759 ft 275 kts 179°
2026-04-22 04:18 43.99369 -123.21009 7551 ft 285 kts 188°
2026-04-22 04:18 43.97427 -123.21379 8544 ft 287 kts 189°
2026-04-22 04:18 43.95467 -123.21782 9528 ft 289 kts 189°
2026-04-22 04:19 43.93481 -123.22176 10499 ft 292 kts 188°
2026-04-22 04:19 43.91416 -123.22568 11123 ft 307 kts 188°
2026-04-22 04:19 43.89255 -123.22961 11624 ft 325 kts 188°
2026-04-22 04:19 43.86950 -123.23369 12103 ft 344 kts 188°
2026-04-22 04:20 43.84518 -123.23792 12547 ft 363 kts 188°
2026-04-22 04:20 43.81956 -123.24238 12990 ft 380 kts 187°
2026-04-22 04:20 43.79283 -123.24699 13745 ft 387 kts 187°
2026-04-22 04:20 43.76632 -123.25158 14602 ft 391 kts 187°
2026-04-22 04:21 43.73912 -123.25629 15458 ft 395 kts 187°
2026-04-22 04:21 43.71171 -123.26104 16297 ft 398 kts 187°
2026-04-22 04:21 43.68420 -123.26579 17084 ft 403 kts 186°
2026-04-22 04:21 43.65667 -123.27055 17883 ft 406 kts 186°
2026-04-22 04:22 43.62862 -123.27538 18639 ft 410 kts 186°
2026-04-22 04:22 43.60029 -123.28024 19374 ft 414 kts 186°
2026-04-22 04:22 43.57164 -123.28515 20180 ft 416 kts 186°
2026-04-22 04:22 43.54299 -123.29006 21020 ft 416 kts 186°
2026-04-22 04:23 43.51439 -123.29497 21835 ft 417 kts 186°
2026-04-22 04:23 43.48544 -123.29993 22619 ft 418 kts 186°
2026-04-22 04:23 43.45670 -123.30486 23352 ft 420 kts 186°
2026-04-22 04:23 43.42783 -123.30981 24075 ft 422 kts 185°
2026-04-22 04:24 43.39892 -123.31479 24754 ft 424 kts 185°
2026-04-22 04:24 43.36933 -123.31988 25345 ft 427 kts 185°
2026-04-22 04:24 43.33962 -123.32499 25899 ft 430 kts 184°
2026-04-22 04:24 43.31002 -123.33007 26421 ft 434 kts 184°
2026-04-22 04:25 43.28025 -123.33516 26932 ft 437 kts 184°
2026-04-22 04:25 43.24988 -123.34034 27457 ft 440 kts 184°
2026-04-22 04:25 43.21932 -123.34440 27923 ft 441 kts 178°
2026-04-22 04:25 43.18913 -123.34222 28384 ft 440 kts 169°
2026-04-22 04:26 43.15920 -123.33350 28994 ft 436 kts 161°
2026-04-22 04:26 43.13103 -123.31897 29672 ft 430 kts 154°
2026-04-22 04:26 43.10439 -123.30246 30304 ft 426 kts 153°
2026-04-22 04:26 43.07754 -123.28560 30825 ft 424 kts 153°
2026-04-22 04:27 43.05083 -123.26870 31166 ft 426 kts 153°
2026-04-22 04:27 43.02391 -123.25168 31421 ft 430 kts 154°
2026-04-22 04:27 42.99633 -123.23428 31667 ft 435 kts 154°
2026-04-22 04:27 42.96906 -123.21710 31925 ft 439 kts 155°
2026-04-22 04:28 42.94122 -123.19962 32205 ft 443 kts 155°
2026-04-22 04:28 42.91311 -123.18200 32502 ft 446 kts 155°
2026-04-22 04:28 42.88508 -123.16446 32775 ft 450 kts 156°
2026-04-22 04:28 42.85634 -123.14657 33079 ft 453 kts 156°
2026-04-22 04:29 42.82794 -123.12891 33362 ft 456 kts 156°
2026-04-22 04:29 42.79876 -123.11076 33673 ft 459 kts 157°
2026-04-22 04:29 42.76997 -123.09289 34039 ft 461 kts 157°
2026-04-22 04:29 42.74059 -123.07463 34435 ft 461 kts 156°
2026-04-22 04:30 42.71172 -123.05670 34819 ft 462 kts 157°
2026-04-22 04:30 42.68249 -123.03853 35190 ft 463 kts 157°
2026-04-22 04:30 42.65319 -123.02035 35515 ft 465 kts 157°
2026-04-22 04:30 42.62355 -123.00195 35780 ft 467 kts 157°
2026-04-22 04:31 42.59379 -122.98352 36034 ft 470 kts 157°
2026-04-22 04:31 42.56405 -122.96513 36282 ft 473 kts 157°
2026-04-22 04:31 42.53413 -122.94662 36529 ft 475 kts 157°
2026-04-22 04:31 42.50378 -122.92873 36752 ft 477 kts 159°
2026-04-22 04:32 42.47277 -122.91288 36928 ft 479 kts 162°
2026-04-22 04:32 42.40895 -122.88743 36968 ft 480 kts 167°
2026-04-22 04:33 42.34439 -122.86437 36972 ft 480 kts 167°
2026-04-22 04:33 42.28010 -122.84141 36973 ft 480 kts 167°
2026-04-22 04:34 42.21565 -122.81840 36972 ft 480 kts 167°
2026-04-22 04:34 42.15123 -122.79548 36960 ft 481 kts 167°
2026-04-22 04:35 42.08652 -122.77252 36952 ft 480 kts 167°
2026-04-22 04:35 42.02207 -122.74968 36937 ft 480 kts 167°
2026-04-22 04:36 41.95753 -122.72688 36932 ft 480 kts 167°
2026-04-22 04:36 41.89294 -122.70409 36941 ft 481 kts 167°
2026-04-22 04:37 41.82845 -122.68149 36947 ft 481 kts 167°
2026-04-22 04:37 41.76389 -122.65888 36959 ft 482 kts 167°
2026-04-22 04:38 41.69890 -122.63615 36973 ft 481 kts 167°
2026-04-22 04:38 41.63423 -122.61351 36971 ft 481 kts 167°
2026-04-22 04:39 41.56953 -122.59091 36974 ft 481 kts 167°
2026-04-22 04:39 41.50529 -122.56857 36957 ft 481 kts 168°
2026-04-22 04:40 41.44039 -122.54600 36959 ft 482 kts 167°
2026-04-22 04:40 41.37547 -122.52347 36952 ft 482 kts 168°
2026-04-22 04:41 41.31074 -122.50106 36938 ft 483 kts 168°
2026-04-22 04:41 41.24579 -122.47863 36924 ft 483 kts 168°
2026-04-22 04:42 41.18071 -122.45619 36928 ft 483 kts 168°
2026-04-22 04:42 41.11574 -122.43383 36948 ft 483 kts 168°
2026-04-22 04:43 41.05062 -122.41147 36965 ft 484 kts 168°
2026-04-22 04:43 40.98545 -122.38916 36975 ft 484 kts 168°
2026-04-22 04:44 40.92056 -122.36697 36981 ft 484 kts 168°
2026-04-22 04:44 40.85537 -122.34473 36988 ft 484 kts 169°
2026-04-22 04:45 40.79013 -122.32227 36996 ft 484 kts 169°
2026-04-22 04:45 40.72543 -122.30012 37002 ft 484 kts 169°
2026-04-22 04:46 40.65998 -122.27785 37007 ft 484 kts 169°
2026-04-22 04:46 40.59495 -122.25583 37010 ft 485 kts 169°
2026-04-22 04:47 40.52967 -122.23379 37012 ft 485 kts 169°
2026-04-22 04:47 40.46415 -122.21169 37016 ft 486 kts 169°
2026-04-22 04:48 40.39916 -122.18982 37013 ft 486 kts 169°
2026-04-22 04:48 40.33375 -122.16786 37014 ft 486 kts 169°
2026-04-22 04:49 40.26848 -122.14600 37015 ft 485 kts 169°
2026-04-22 04:49 40.20332 -122.12418 37007 ft 485 kts 169°
2026-04-22 04:50 40.13766 -122.10228 37010 ft 486 kts 169°
2026-04-22 04:50 40.07233 -122.08050 37003 ft 488 kts 170°
2026-04-22 04:51 40.00647 -122.05863 37001 ft 487 kts 170°
2026-04-22 04:51 39.94100 -122.03689 37003 ft 487 kts 170°
2026-04-22 04:52 39.87505 -122.01508 36999 ft 487 kts 170°
2026-04-22 04:52 39.80984 -121.99361 36999 ft 486 kts 170°
2026-04-22 04:53 39.74435 -121.97206 37000 ft 486 kts 170°
2026-04-22 04:53 39.67852 -121.95039 37007 ft 487 kts 170°
2026-04-22 04:54 39.61272 -121.92878 37006 ft 487 kts 171°
2026-04-22 04:54 39.54668 -121.90713 37009 ft 489 kts 170°
2026-04-22 04:55 39.48078 -121.88556 37015 ft 489 kts 171°
2026-04-22 04:55 39.41512 -121.86410 37022 ft 489 kts 171°
2026-04-22 04:56 39.34918 -121.84263 37026 ft 490 kts 171°
2026-04-22 04:56 39.28242 -121.82091 37027 ft 491 kts 171°
2026-04-22 04:57 39.21574 -121.79926 37029 ft 491 kts 171°
2026-04-22 04:57 39.14960 -121.77784 37029 ft 490 kts 171°
2026-04-22 04:58 39.08331 -121.75639 37042 ft 491 kts 171°
2026-04-22 04:58 39.01675 -121.73492 37040 ft 491 kts 171°
2026-04-22 04:59 38.95031 -121.71353 37055 ft 492 kts 172°
2026-04-22 04:59 38.88366 -121.69213 37041 ft 492 kts 172°
2026-04-22 05:00 38.81744 -121.67093 37063 ft 493 kts 172°
2026-04-22 05:00 38.75100 -121.64966 37062 ft 493 kts 172°
2026-04-22 05:01 38.68425 -121.62833 37074 ft 493 kts 172°
2026-04-22 05:01 38.61751 -121.60706 37077 ft 493 kts 172°
2026-04-22 05:02 38.55104 -121.58588 37083 ft 493 kts 172°
2026-04-22 05:02 38.48445 -121.56461 37076 ft 494 kts 172°
2026-04-22 05:03 38.41872 -121.53790 37080 ft 500 kts 165°
2026-04-22 05:03 38.35406 -121.50364 37079 ft 503 kts 163°
2026-04-22 05:04 38.28975 -121.46883 37097 ft 502 kts 163°
2026-04-22 05:04 38.22501 -121.43392 37094 ft 503 kts 163°
2026-04-22 05:05 38.16049 -121.39925 37095 ft 502 kts 163°
2026-04-22 05:05 38.09623 -121.36482 37103 ft 503 kts 163°
2026-04-22 05:06 38.03218 -121.33044 37094 ft 503 kts 164°
2026-04-22 05:06 37.96759 -121.29563 37119 ft 502 kts 165°
2026-04-22 05:07 37.90333 -121.26124 37111 ft 501 kts 165°
2026-04-22 05:07 37.83908 -121.22713 37114 ft 501 kts 165°
2026-04-22 05:08 37.77492 -121.19318 37114 ft 502 kts 165°
2026-04-22 05:08 37.71038 -121.15900 37122 ft 501 kts 165°
2026-04-22 05:09 37.64626 -121.12508 37112 ft 501 kts 165°
2026-04-22 05:09 37.58180 -121.09106 37110 ft 501 kts 165°
2026-04-22 05:10 37.51780 -121.05733 37121 ft 500 kts 165°
2026-04-22 05:10 37.45363 -121.02360 37111 ft 501 kts 165°
2026-04-22 05:11 37.38916 -120.98978 37109 ft 501 kts 165°
2026-04-22 05:11 37.32496 -120.95611 37114 ft 500 kts 165°
2026-04-22 05:12 37.26067 -120.92251 37117 ft 502 kts 165°
2026-04-22 05:12 37.19588 -120.88870 37087 ft 503 kts 165°
2026-04-22 05:13 37.13178 -120.85530 37115 ft 501 kts 165°
2026-04-22 05:13 37.06710 -120.82166 37124 ft 502 kts 166°
2026-04-22 05:14 37.00277 -120.78827 37128 ft 501 kts 166°
2026-04-22 05:14 36.93832 -120.75485 37139 ft 500 kts 166°
2026-04-22 05:15 36.87395 -120.72163 37131 ft 501 kts 166°
2026-04-22 05:15 36.80988 -120.68864 37127 ft 500 kts 166°
2026-04-22 05:16 36.74547 -120.65552 37114 ft 501 kts 166°
2026-04-22 05:16 36.68100 -120.62238 37136 ft 502 kts 166°
2026-04-22 05:17 36.61655 -120.58929 37105 ft 502 kts 166°
2026-04-22 05:17 36.55189 -120.55615 37121 ft 502 kts 166°
2026-04-22 05:18 36.45519 -120.50669 37121 ft 501 kts 166°
2026-04-22 05:18 36.39096 -120.47392 37125 ft 502 kts 166°
2026-04-22 05:19 36.32606 -120.44087 37112 ft 502 kts 166°
2026-04-22 05:19 36.26163 -120.40813 37119 ft 502 kts 166°
2026-04-22 05:20 36.19689 -120.37527 37111 ft 503 kts 166°
2026-04-22 05:20 36.13209 -120.34241 37113 ft 502 kts 167°
2026-04-22 05:21 36.06750 -120.30944 37106 ft 503 kts 167°
2026-04-22 05:21 36.00328 -120.27685 37120 ft 503 kts 167°
2026-04-22 05:22 35.93820 -120.24406 37114 ft 504 kts 167°
2026-04-22 05:22 35.87354 -120.21158 37120 ft 501 kts 167°
2026-04-22 05:23 35.80886 -120.17922 37110 ft 503 kts 168°
2026-04-22 05:23 35.74442 -120.14698 37132 ft 502 kts 167°
2026-04-22 05:24 35.67963 -120.11315 37111 ft 508 kts 164°
2026-04-22 05:24 35.61740 -120.07156 37117 ft 517 kts 158°
2026-04-22 05:25 35.55630 -120.02529 37118 ft 516 kts 157°
2026-04-22 05:25 35.52588 -120.00221 36957 ft 511 kts 157°
2026-04-22 05:25 35.49585 -119.97948 36341 ft 512 kts 158°
2026-04-22 05:26 35.46532 -119.95656 35514 ft 518 kts 158°
2026-04-22 05:26 35.43444 -119.93340 34745 ft 523 kts 158°
2026-04-22 05:26 35.40322 -119.91004 33974 ft 528 kts 158°
2026-04-22 05:26 35.37211 -119.88676 33134 ft 532 kts 157°
2026-04-22 05:27 35.34044 -119.86302 32449 ft 532 kts 157°
2026-04-22 05:27 35.30876 -119.83922 32079 ft 535 kts 156°
2026-04-22 05:27 35.27803 -119.81414 31634 ft 539 kts 152°
2026-04-22 05:27 35.24778 -119.78666 30743 ft 545 kts 150°
2026-04-22 05:28 35.21746 -119.75829 29909 ft 547 kts 149°
2026-04-22 05:28 35.18760 -119.73016 29150 ft 546 kts 149°
2026-04-22 05:28 35.15742 -119.70175 28396 ft 544 kts 149°
2026-04-22 05:28 35.12787 -119.67402 27722 ft 540 kts 149°
2026-04-22 05:29 35.09836 -119.64639 27309 ft 531 kts 149°
2026-04-22 05:29 35.06925 -119.61923 26795 ft 525 kts 149°
2026-04-22 05:29 35.04020 -119.59219 26317 ft 518 kts 149°
2026-04-22 05:29 35.01201 -119.56598 26221 ft 503 kts 149°
2026-04-22 05:30 34.98466 -119.54056 26167 ft 488 kts 150°
2026-04-22 05:30 34.95808 -119.51588 26057 ft 475 kts 150°
2026-04-22 05:30 34.93232 -119.49204 26029 ft 460 kts 150°
2026-04-22 05:30 34.90693 -119.46860 25949 ft 447 kts 151°
2026-04-22 05:31 34.88234 -119.44647 25617 ft 441 kts 152°
2026-04-22 05:31 34.85765 -119.42461 25292 ft 435 kts 152°
2026-04-22 05:31 34.83329 -119.40303 24964 ft 430 kts 152°
2026-04-22 05:31 34.80929 -119.38172 24641 ft 424 kts 152°
2026-04-22 05:32 34.78565 -119.36063 24332 ft 419 kts 152°
2026-04-22 05:32 34.76240 -119.33984 23869 ft 412 kts 152°
2026-04-22 05:32 34.73975 -119.31954 23389 ft 406 kts 153°
2026-04-22 05:32 34.71709 -119.29958 22879 ft 399 kts 153°
2026-04-22 05:33 34.69485 -119.28012 22374 ft 392 kts 153°
2026-04-22 05:33 34.67281 -119.26092 21886 ft 385 kts 153°
2026-04-22 05:33 34.65129 -119.24217 21402 ft 379 kts 153°
2026-04-22 05:33 34.63018 -119.22390 20951 ft 374 kts 154°
2026-04-22 05:34 34.60899 -119.20567 20659 ft 370 kts 154°
2026-04-22 05:34 34.58814 -119.18773 20343 ft 366 kts 154°
2026-04-22 05:34 34.56760 -119.17009 19997 ft 363 kts 153°
2026-04-22 05:34 34.54695 -119.15206 19602 ft 362 kts 153°
2026-04-22 05:35 34.52674 -119.13412 19255 ft 360 kts 153°
2026-04-22 05:35 34.50679 -119.11639 18901 ft 357 kts 153°
2026-04-22 05:35 34.48665 -119.09853 18514 ft 355 kts 152°
2026-04-22 05:35 34.46692 -119.08109 18141 ft 354 kts 153°
2026-04-22 05:36 34.44696 -119.06345 17786 ft 351 kts 152°
2026-04-22 05:36 34.42746 -119.04638 17403 ft 349 kts 153°
2026-04-22 05:36 34.40765 -119.02919 17058 ft 347 kts 153°
2026-04-22 05:36 34.38820 -119.01238 16692 ft 344 kts 153°
2026-04-22 05:37 34.36862 -118.99548 16303 ft 342 kts 153°
2026-04-22 05:37 34.34940 -118.97890 15935 ft 339 kts 152°
2026-04-22 05:37 34.33035 -118.96215 15543 ft 339 kts 151°
2026-04-22 05:37 34.31151 -118.94504 15155 ft 337 kts 150°
2026-04-22 05:38 34.29293 -118.92807 14784 ft 335 kts 150°
2026-04-22 05:38 34.27444 -118.91120 14430 ft 331 kts 150°
2026-04-22 05:38 34.25616 -118.89459 14038 ft 329 kts 150°
2026-04-22 05:38 34.23801 -118.87798 13671 ft 327 kts 150°
2026-04-22 05:39 34.21994 -118.86135 13284 ft 325 kts 149°
2026-04-22 05:39 34.20203 -118.84490 12911 ft 323 kts 149°
2026-04-22 05:39 34.18420 -118.82851 12536 ft 320 kts 149°
2026-04-22 05:39 34.16660 -118.81218 12162 ft 319 kts 147°
2026-04-22 05:40 34.14974 -118.79452 11776 ft 318 kts 144°
2026-04-22 05:40 34.13335 -118.77670 11402 ft 316 kts 143°
2026-04-22 05:40 34.11719 -118.75899 11019 ft 315 kts 143°
2026-04-22 05:40 34.10113 -118.74145 10638 ft 312 kts 143°
2026-04-22 05:41 34.08505 -118.72392 10265 ft 310 kts 143°
2026-04-22 05:41 34.06916 -118.70667 9921 ft 306 kts 143°
2026-04-22 05:41 34.05337 -118.68950 9615 ft 302 kts 143°
2026-04-22 05:41 34.03804 -118.67245 9305 ft 300 kts 136°
2026-04-22 05:42 34.02780 -118.65087 9013 ft 303 kts 106°
2026-04-22 05:42 34.02475 -118.62613 8783 ft 298 kts 96°
2026-04-22 05:42 34.02301 -118.60110 8448 ft 297 kts 95°
2026-04-22 05:42 34.02125 -118.57640 8094 ft 296 kts 96°
2026-04-22 05:43 34.01926 -118.55228 7978 ft 285 kts 96°
2026-04-22 05:43 34.01719 -118.52921 7967 ft 271 kts 97°
2026-04-22 05:43 34.01514 -118.50706 7882 ft 260 kts 97°
2026-04-22 05:43 34.01311 -118.48564 7671 ft 256 kts 97°
2026-04-22 05:44 34.01131 -118.46464 7467 ft 247 kts 93°
2026-04-22 05:44 34.01238 -118.44397 7130 ft 249 kts 80°
2026-04-22 05:44 34.01564 -118.42351 6784 ft 248 kts 76°
2026-04-22 05:44 34.01934 -118.40336 6505 ft 244 kts 76°
2026-04-22 05:45 34.02296 -118.38360 6259 ft 239 kts 76°
2026-04-22 05:45 34.02640 -118.36443 5967 ft 236 kts 77°
2026-04-22 05:45 34.02895 -118.34500 5731 ft 229 kts 82°
2026-04-22 05:45 34.03090 -118.32612 5425 ft 226 kts 82°
2026-04-22 05:46 34.03275 -118.30733 4927 ft 227 kts 82°
2026-04-22 05:46 34.03460 -118.28886 4472 ft 225 kts 82°
2026-04-22 05:46 34.03621 -118.27027 4029 ft 222 kts 90°
2026-04-22 05:46 34.03174 -118.25272 3559 ft 219 kts 126°
2026-04-22 05:47 34.02029 -118.24163 3117 ft 213 kts 160°
2026-04-22 05:47 34.00584 -118.24039 2665 ft 206 kts 194°
2026-04-22 05:47 33.99186 -118.24417 2478 ft 206 kts 197°
2026-04-22 05:47 33.97794 -118.24928 2484 ft 208 kts 200°
2026-04-22 05:48 33.96540 -118.25571 2445 ft 187 kts 221°
2026-04-22 05:48 33.95896 -118.26817 2263 ft 170 kts 264°
2026-04-22 05:48 33.95952 -118.28167 2035 ft 154 kts 278°
2026-04-22 05:48 33.96057 -118.29399 1825 ft 144 kts 274°
2026-04-22 05:49 33.96072 -118.30619 1648 ft 144 kts 270°
2026-04-22 05:49 33.96034 -118.31817 1468 ft 143 kts 268°
2026-04-22 05:49 33.95957 -118.33005 1289 ft 143 kts 265°
2026-04-22 05:49 33.95839 -118.34190 1107 ft 143 kts 264°
2026-04-22 05:50 33.95711 -118.35372 924 ft 142 kts 264°
2026-04-22 05:50 33.95585 -118.36559 738 ft 142 kts 264°
2026-04-22 05:50 33.95463 -118.37740 549 ft 142 kts 264°
2026-04-22 05:50 33.95339 -118.38929 362 ft 142 kts 264°
2026-04-22 05:51 33.95220 -118.40105 180 ft 141 kts 264°
2026-04-22 05:51 33.95108 -118.41181 133 ft 109 kts 265°
2026-04-22 05:51 33.95039 -118.41873 133 ft 57 kts 264°
2026-04-22 05:51 33.94994 -118.42323 130 ft 49 kts 263°
2026-04-22 05:52 33.94953 -118.42718 124 ft 41 kts 263°
2026-04-22 05:52 33.94929 -118.42969 120 ft 19 kts 264°
2026-04-22 05:52 33.94913 -118.43070 118 ft 10 kts 237°
2026-04-22 05:52 33.94855 -118.43095 118 ft 10 kts 177°
2026-04-22 05:53 33.94791 -118.43089 117 ft 11 kts 174°
2026-04-22 05:53 33.94699 -118.43059 117 ft 14 kts 143°
2026-04-22 05:53 33.94632 -118.42966 116 ft 12 kts 120°
2026-04-22 05:53 33.94621 -118.42860 118 ft 13 kts 85°
2026-04-22 05:54 33.94632 -118.42736 119 ft 16 kts 83°
2026-04-22 05:54 33.94647 -118.42593 121 ft 17 kts 82°
2026-04-22 05:54 33.94664 -118.42447 124 ft 17 kts 82°
2026-04-22 05:54 33.94678 -118.42308 126 ft 16 kts 84°
2026-04-22 05:55 33.94691 -118.42177 127 ft 15 kts 84°
2026-04-22 05:55 33.94702 -118.42058 129 ft 13 kts 83°
2026-04-22 05:55 33.94714 -118.41946 130 ft 14 kts 83°
2026-04-22 05:55 33.94727 -118.41814 130 ft 16 kts 84°
2026-04-22 05:56 33.94740 -118.41681 130 ft 15 kts 83°
2026-04-22 05:56 33.94754 -118.41554 130 ft 14 kts 83°
2026-04-22 05:56 33.94764 -118.41454 132 ft 6 kts 84°
2026-04-22 05:56 33.94756 -118.41412 131 ft 5 kts 130°
2026-04-22 05:57 33.94714 -118.41387 131 ft 7 kts 174°
2026-04-22 05:57 33.94655 -118.41380 130 ft 9 kts 173°
2026-04-22 05:57 33.94586 -118.41370 130 ft 10 kts 173°
2026-04-22 05:57 33.94518 -118.41344 130 ft 10 kts 143°
2026-04-22 05:58 33.94509 -118.41280 130 ft 4 kts 71°
2026-04-22 05:58 33.94514 -118.41235 130 ft 6 kts 83°
2026-04-22 05:58 33.94519 -118.41178 130 ft 7 kts 83°
2026-04-22 05:58 33.94521 -118.41155 130 ft 0 kts 83°